Other Public Products
Issued by NWS Charleston, SC

Home | Current Version | Previous Version | Text Only | Print | Product List | Glossary On
Versions: 1 2 3 4 5 6 7 8 9 10 11 12 13 14 15 16 17 18 19 20 21 22 23 24 25 26 27 28 29 30 31 32 33 34 35 36 37 38 39 40 41 42 43 44 45 46 47 48 49 50
620
FPUS82 KCHS 192327
OPUCHS

TEST...KCHS/KSAV Gateway Observations...TEST
National Weather Service Charleston SC
700 PM EDT THU APR 19 2018

NOTE: "fair" indicates few or no clouds below 12,000 feet with no
significant weather and/or obstructions to visibility.

SCZ050-WAZ558-NCZ071-TXZ119-213-PAZ071-DCZ001-FLZ074-172-MI076-
NYZ176-178-MAZ016-IL014-TNZ027-NJZ106-GAZ044-MD014-200000-

...Gateway Observations for Charleston International...

CITY           SKY/WX    TMP DP  RH WIND       PRES   REMARKS
Chas Airport   FAIR      81  48  31 W16G24    29.92R
Seattle        PTSUNNY   61  36  39 W6        30.25F
Charlotte      FAIR      60  32  34 N15G25    30.08R
Dallas DFW     MOSUNNY   69  31  24 NE15G21   30.25F
Dallas Love    MOSUNNY   71  33  24 NE13      30.26F
Philladelphia  MOCLDY    46  27  47 NW21G26   29.95R
Wash National  MOCLDY    48  25  40 NW30G39   30.06R
Baltimore      MOCLDY    45  26  47 NW23G36   30.04R
Miami          MOCLDY    79  64  60 SE10      30.06R
Detroit        FAIR      53  15  22 N18       30.20R
Newark         MOCLDY    46  25  43 NW17G29   29.87R
Laguardia      MOCLDY    46  27  47 NW21G33   29.86R
J F K          MOCLDY    45  26  47 NW25G35   29.87R
Boston Logan   MOCLDY    43  35  73 NW16      29.73R
Ft. Lauderdale FAIR      78  64  61 SE13      30.05S
Chicago O`Hare FAIR      53  22  29 N6        30.39R
Chicago Midway FAIR      52  24  33 NE9       30.39R
Houston Bush   FAIR      75  40  28 NE14      30.19F
Houston Hobby  FAIR      75  41  29 N9        30.18S
Nashville      PTSUNNY   51  32  48 N13       30.32R
Atlanta        FAIR      60  36  40 NW17G25   30.13R

$$

GAZ044-118-TXZ119-213-NCZ071-DCZ001-MDZ014-506-PAZ021-071-NJZ106-
NYZ176-178-MAZ106-OHZ011-021-055-MIZ076-KYZ091-ILZ014-INZ047-
MNZ060-ONZ431-200000-

...Gateway Observations for Savannah International...

CITY           SKY/WX    TMP DP  RH WIND       PRES   REMARKS
Savannah Arpt  FAIR      81  56  42 W16       29.96R
Atlanta        FAIR      60  36  40 NW17G25   30.13R
Charlotte      FAIR      60  32  34 N15G25    30.08R
Dallas DFW     MOSUNNY   69  31  24 NE15G21   30.25F
Houston Bush   FAIR      75  40  28 NE14      30.19F
Wash National  MOCLDY    48  25  40 NW30G39   30.06R
Wash Dulles    MOCLDY    45  27  49 NW24G33   30.07R
Baltimore      MOCLDY    45  26  47 NW23G36   30.04R
Philadelphia   MOCLDY    46  27  47 NW21G26   29.95R
Newark         MOCLDY    46  25  43 NW17G29   29.87R
Laguardia      MOCLDY    46  27  47 NW21G33   29.86R
J F K          MOCLDY    45  26  47 NW25G35   29.87R
Boston         MOCLDY    43  35  73 NW16      29.73R
Pittsburg      FAIR      43  25  49 NW15G26   30.14R
Akron          FAIR      47  23  38 NW18G29   30.16R
Cleveland      FAIR      44  26  49 N12       30.23R
Cincinnati     FAIR      54  25  32 N12       30.27R
Columbus       FAIR      51  28  41 NW13      30.22S
Detroit        FAIR      53  15  22 N18       30.20R
Chicago O`Hare FAIR      53  22  29 N6        30.39R
Minneapolis    FAIR      52  20  28 NW6       30.44S
Indianapolis   FAIR      54  24  31 NW21G26   30.32R
Toronto Canada MOSUNNY   36  19  51 N18G28    30.10R WCI  25

$$




USA.gov is the U.S. government's official web portal to all federal, state and local government web resources and services.